When you browse on this site, cookies collect data to enhance your experience and personalize the content and advertising you see.
Visit our Privacy Policy to learn more. By continuing to use the site, you agree to this use of cookies and data.
  • Em Portugal
  • Lista de países
  • Para 7 dias
  • Temperatura da água
  • Mapas de satélite
  • Mapa do tempo
  • Widgets de tempo
  • user-avatar
    Iniciar Sessão

    Previsão horária em Skalnyy

    Hoje, 26 Abril, Sexta-feira

    Tempo Temperatura Precipitação Vento Pressão Humidade
    00:00 -2°C° 0 mm 1 m/s 735 mmHg 89%
    01:00 -3°C° 0 mm 1 m/s 735 mmHg 89%
    02:00 -3°C° 0 mm 1 m/s 735 mmHg 89%
    03:00 -3°C° 0 mm 1 m/s 734 mmHg 88%
    04:00 -3°C° 0 mm 1 m/s 734 mmHg 89%
    05:00 -2°C° 0 mm 1 m/s 734 mmHg 85%
    06:00 -3°C° 0 mm 2 m/s 733 mmHg 81%
    07:00 -1°C° 0 mm 3 m/s 733 mmHg 77%
    08:00 0°C° 0.3 mm 3 m/s 733 mmHg 75%
    09:00 +1°C° 0.3 mm 3 m/s 733 mmHg 73%
    10:00 +2°C° 0.3 mm 3 m/s 732 mmHg 71%
    11:00 +3°C° 0.3 mm 3 m/s 732 mmHg 66%
    12:00 +3°C° 0.3 mm 3 m/s 732 mmHg 61%
    13:00 +4°C° 0.3 mm 4 m/s 732 mmHg 57%
    14:00 +4°C° 0.1 mm 4 m/s 732 mmHg 56%
    15:00 +4°C° 0.1 mm 4 m/s 731 mmHg 56%
    16:00 +2°C° 0.1 mm 5 m/s 731 mmHg 55%
    17:00 +1°C° 0 mm 4 m/s 731 mmHg 60%
    18:00 +1°C° 0 mm 3 m/s 731 mmHg 65%
    19:00 -1°C° 0 mm 3 m/s 732 mmHg 70%
    20:00 -2°C° 0 mm 2 m/s 732 mmHg 75%
    21:00 -3°C° 0 mm 2 m/s 732 mmHg 80%
    22:00 -3°C° 0 mm 1 m/s 732 mmHg 85%
    23:00 -3°C° 0 mm 1 m/s 733 mmHg 86%

    Amanhã, 27 Abril, Sábado

    Tempo Temperatura Precipitação Vento Pressão Humidade
    00:00 -4°C° 0 mm 1 m/s 733 mmHg 88%
    01:00 -4°C° 0 mm 1 m/s 733 mmHg 90%
    02:00 -4°C° 0 mm 1 m/s 733 mmHg 90%
    03:00 -6°C° 0 mm 1 m/s 733 mmHg 90%
    04:00 -6°C° 0 mm 1 m/s 733 mmHg 90%
    05:00 -3°C° 0 mm 1 m/s 732 mmHg 84%
    06:00 -2°C° 0 mm 1 m/s 732 mmHg 77%
    07:00 -1°C° 0 mm 1 m/s 732 mmHg 70%
    08:00 -3°C° 0.1 mm 2 m/s 732 mmHg 70%
    09:00 -2°C° 0.1 mm 2 m/s 731 mmHg 70%
    10:00 -2°C° 0.1 mm 3 m/s 731 mmHg 69%
    11:00 -2°C° 1 mm 3 m/s 730 mmHg 76%
    12:00 -3°C° 1 mm 4 m/s 729 mmHg 83%
    13:00 -3°C° 1 mm 4 m/s 728 mmHg 89%
    14:00 -2°C° 1.3 mm 4 m/s 727 mmHg 89%
    15:00 -1°C° 1.3 mm 4 m/s 726 mmHg 89%
    16:00 0°C° 1.3 mm 4 m/s 726 mmHg 89%
    17:00 +2°C° 1.6 mm 3 m/s 725 mmHg 92%
    18:00 +2°C° 1.6 mm 3 m/s 724 mmHg 94%
    19:00 +3°C° 1.6 mm 2 m/s 724 mmHg 97%
    20:00 +3°C° 0.5 mm 2 m/s 724 mmHg 97%
    21:00 +3°C° 0.5 mm 2 m/s 724 mmHg 98%
    22:00 +3°C° 0.5 mm 2 m/s 724 mmHg 98%
    23:00 +2°C° 0 mm 2 m/s 724 mmHg 97%

    Depois de amanhã, 28 Abril, Domingo

    Tempo Temperatura Precipitação Vento Pressão Humidade
    00:00 +1°C° 0 mm 2 m/s 724 mmHg 97%
    01:00 -1°C° 0 mm 2 m/s 723 mmHg 96%
    02:00 -1°C° 0 mm 2 m/s 724 mmHg 95%
    03:00 -2°C° 0 mm 2 m/s 724 mmHg 94%
    04:00 -2°C° 0 mm 2 m/s 724 mmHg 93%
    05:00 -2°C° 0.1 mm 3 m/s 724 mmHg 91%
    06:00 -2°C° 0.1 mm 3 m/s 724 mmHg 88%
    07:00 -3°C° 0.1 mm 4 m/s 724 mmHg 85%
    08:00 -2°C° 0.1 mm 4 m/s 725 mmHg 82%
    09:00 -2°C° 0.1 mm 4 m/s 725 mmHg 78%
    10:00 -1°C° 0.1 mm 4 m/s 726 mmHg 75%
    11:00 -1°C° 0.1 mm 4 m/s 726 mmHg 73%
    12:00 0°C° 0.1 mm 4 m/s 726 mmHg 71%
    13:00 0°C° 0.1 mm 5 m/s 727 mmHg 69%
    14:00 0°C° 0.1 mm 4 m/s 727 mmHg 69%
    15:00 0°C° 0.1 mm 4 m/s 727 mmHg 68%
    16:00 0°C° 0.1 mm 4 m/s 728 mmHg 67%
    17:00 -1°C° 0.1 mm 4 m/s 728 mmHg 71%
    18:00 -1°C° 0.1 mm 3 m/s 728 mmHg 75%
    19:00 -2°C° 0.1 mm 2 m/s 729 mmHg 78%
    20:00 -3°C° 0 mm 2 m/s 729 mmHg 81%
    21:00 -4°C° 0 mm 2 m/s 730 mmHg 83%
    22:00 -5°C° 0 mm 2 m/s 730 mmHg 86%
    23:00 -6°C° 0 mm 2 m/s 730 mmHg 87%

    29 Abril, Segunda-feira

    Tempo Temperatura Precipitação Vento Pressão Humidade
    00:00 -6°C° 0 mm 2 m/s 731 mmHg 89%
    01:00 -7°C° 0 mm 2 m/s 731 mmHg 90%
    02:00 -7°C° 0 mm 2 m/s 731 mmHg 91%
    03:00 -7°C° 0 mm 2 m/s 732 mmHg 91%
    04:00 -7°C° 0 mm 2 m/s 732 mmHg 92%
    05:00 -6°C° 0 mm 2 m/s 733 mmHg 87%
    06:00 -6°C° 0 mm 2 m/s 733 mmHg 82%
    07:00 -5°C° 0 mm 2 m/s 733 mmHg 78%
    08:00 -4°C° 0 mm 2 m/s 734 mmHg 72%
    09:00 -3°C° 0 mm 2 m/s 734 mmHg 67%
    10:00 -2°C° 0 mm 2 m/s 734 mmHg 61%
    11:00 -2°C° 0.1 mm 2 m/s 734 mmHg 59%
    12:00 -2°C° 0.1 mm 2 m/s 734 mmHg 57%
    13:00 -1°C° 0.1 mm 2 m/s 734 mmHg 55%
    14:00 -1°C° 0.1 mm 2 m/s 734 mmHg 55%
    15:00 -1°C° 0.1 mm 2 m/s 734 mmHg 54%
    16:00 -1°C° 0.1 mm 2 m/s 734 mmHg 54%
    17:00 -1°C° 0.1 mm 2 m/s 734 mmHg 59%
    18:00 -2°C° 0.1 mm 2 m/s 734 mmHg 64%
    19:00 -3°C° 0.1 mm 2 m/s 734 mmHg 69%
    20:00 -2°C° 0 mm 1 m/s 734 mmHg 74%
    21:00 -3°C° 0 mm 1 m/s 734 mmHg 79%
    22:00 -4°C° 0 mm 1 m/s 734 mmHg 85%
    23:00 -6°C° 0 mm 1 m/s 734 mmHg 86%

    30 Abril, Terça-feira

    Tempo Temperatura Precipitação Vento Pressão Humidade
    00:00 -6°C° 0 mm 1 m/s 734 mmHg 87%
    01:00 -6°C° 0 mm 1 m/s 734 mmHg 88%
    02:00 -6°C° 0 mm 1 m/s 734 mmHg 89%
    03:00 -7°C° 0 mm 1 m/s 734 mmHg 90%
    04:00 -7°C° 0 mm 1 m/s 734 mmHg 91%
    05:00 -6°C° 0 mm 1 m/s 734 mmHg 86%
    06:00 -4°C° 0 mm 1 m/s 734 mmHg 80%
    07:00 -5°C° 0 mm 2 m/s 734 mmHg 75%
    08:00 -4°C° 0 mm 2 m/s 734 mmHg 69%
    09:00 -4°C° 0 mm 3 m/s 733 mmHg 64%
    10:00 -2°C° 0 mm 3 m/s 733 mmHg 58%
    11:00 -1°C° 0 mm 3 m/s 733 mmHg 57%
    12:00 -1°C° 0 mm 3 m/s 732 mmHg 55%
    13:00 -1°C° 0 mm 4 m/s 732 mmHg 54%
    14:00 -1°C° 0.1 mm 4 m/s 732 mmHg 55%
    15:00 -1°C° 0.1 mm 4 m/s 732 mmHg 55%
    16:00 -1°C° 0.1 mm 4 m/s 731 mmHg 56%
    17:00 0°C° 0.1 mm 3 m/s 731 mmHg 61%
    18:00 -1°C° 0.1 mm 3 m/s 731 mmHg 65%
    19:00 -1°C° 0.1 mm 2 m/s 731 mmHg 70%
    20:00 -2°C° 0 mm 2 m/s 730 mmHg 73%
    21:00 -3°C° 0 mm 2 m/s 730 mmHg 77%
    22:00 -4°C° 0 mm 2 m/s 730 mmHg 81%
    23:00 -5°C° 0 mm 3 m/s 729 mmHg 81%

    1 Maio, Quarta-feira

    Tempo Temperatura Precipitação Vento Pressão Humidade
    00:00 -5°C° 0 mm 3 m/s 729 mmHg 81%
    01:00 -5°C° 0 mm 3 m/s 729 mmHg 80%
    02:00 -5°C° 0.4 mm 3 m/s 728 mmHg 83%
    03:00 -4°C° 0.4 mm 4 m/s 728 mmHg 86%
    04:00 -4°C° 0.4 mm 4 m/s 728 mmHg 89%
    05:00 -3°C° 0.1 mm 4 m/s 728 mmHg 85%
    06:00 -3°C° 0.1 mm 4 m/s 728 mmHg 82%
    07:00 -3°C° 0.1 mm 4 m/s 729 mmHg 78%
    08:00 -2°C° 0.1 mm 5 m/s 729 mmHg 73%
    09:00 -2°C° 0.1 mm 5 m/s 729 mmHg 67%
    10:00 -1°C° 0.1 mm 5 m/s 730 mmHg 61%
    11:00 -1°C° 0 mm 4 m/s 730 mmHg 59%
    12:00 0°C° 0 mm 4 m/s 730 mmHg 57%
    13:00 0°C° 0 mm 4 m/s 731 mmHg 55%
    14:00 0°C° 0 mm 4 m/s 731 mmHg 55%
    15:00 +1°C° 0 mm 4 m/s 731 mmHg 55%
    16:00 +2°C° 0 mm 3 m/s 731 mmHg 54%
    17:00 +1°C° 0 mm 3 m/s 731 mmHg 61%
    18:00 +1°C° 0 mm 2 m/s 731 mmHg 67%
    19:00 +1°C° 0 mm 1 m/s 731 mmHg 73%
    20:00 0°C° 0 mm 1 m/s 731 mmHg 77%
    21:00 -2°C° 0 mm 0 m/s 732 mmHg 80%
    22:00 -3°C° 0 mm 0 m/s 732 mmHg 84%
    23:00 -3°C° 0 mm 0 m/s 732 mmHg 83%
    Mostrar mais